Location: Bieg
(49.3499°N, 10.3835°E)
Time: 17:33:24
(UTC+00:00)

Meteor 1-28 Rocket - Pass Details

Date: 17 December 2025
Orbit: 429 x 441 km, 97.6° (Epoch: 12 January)

Event Time Altitude Azimuth Distance (km) Brightness Sun altitude
Exits shadow 16:56:10 - 3° (N) 2,079 6.1 -14.6°
Reaches altitude 10° 16:57:27 10° 357° (N) 1,563 5.5 -14.8°
Maximum altitude 17:00:31 35° 290° (WNW) 732 4.4 -15.3°
Drops below altitude 10° 17:03:33 10° 223° (SW) 1,542 6.6 -15.8°
Sets 17:05:39 0° 215° (SW) 2,402 7.5 -16.1°
